OpenBCM V1.08-5-g2f4a (Linux)

Packet Radio Mailbox

IZ3LSV

[San Dona' di P. JN]

 Login: GUEST





  
CX2SA  > KEPS     04.07.25 01:26l 342 Lines 16281 Bytes #66 (0) @ AMSAT
BID : ORB25185.1
Read: GUEST
Subj: 2Line Orbital Elements 25185.AMSAT
Path: IZ3LSV<IK6IHL<IK7NXU<HB9ON<DK0WUE<PI8ZTM<CX2SA
Sent: 250704/0024Z @:CX2SA.SAL.URY.SOAM #:53407 [Salto] FBB7.00e $:ORB25185.1
From: CX2SA@CX2SA.SAL.URY.SOAM
To  : KEPS@AMSAT


QST de W1STR

AMSAT Orbital Elements for Amateur Satellites in TLE Format
>From Orbital Analysis Office
New England Sci-Tech STEM Education Center
Natick, MA July 04, 2025
To all radio amateurs


These element sets describe the orbits of various satellites
in use by the amateur radio community. For details see:
www.amsat.org/keplerian-elements-formats/

A daily update of element sets is available at:
www.amsat.org/tle/daily-bulletin.txt
or without bulletin text:
www.amsat.org/tle/dailytle.txt


AO-07
1 07530U 74089B   25184.59604950 -.00000040  00000-0  37493-4 0  9996
2 07530 101.9929 189.1157 0012636  76.9514  32.8752 12.53689918316830
UO-11
1 14781U 84021B   25184.45057624  .00001027  00000-0  11377-3 0  9991
2 14781  97.7555 150.3494 0006290 255.5374 104.5146 14.89442612205194
AO-27
1 22825U 93061C   25184.41376531  .00000071  00000-0  44241-4 0  9995
2 22825  98.7356 246.0870 0009193  48.9949 311.2027 14.30806013657124
FO-29
1 24278U 96046B   25184.70670609 -.00000044  00000-0 -57146-5 0  9991
2 24278  98.5729  75.4222 0348849 280.1384  76.0584 13.53250143426288
NOAA-15
1 25338U 98030A   25184.86183689  .00000174  00000-0  89327-4 0  9995
2 25338  98.5339 209.4074 0009043 290.5817  69.4394 14.26991446411865
GO-32
1 25397U 98043D   25184.85734582  .00000054  00000-0  43479-4 0  9992
2 25397  98.9712 164.4847 0002147 116.5486 243.5912 14.24320020401967
ISS
1 25544U 98067A   25184.72035971  .00008064  00000-0  14724-3 0  9993
2 25544  51.6362 225.1235 0002091 328.2731 137.9413 15.50362223517722
NO-44
1 26931U 01043C   25184.60638308  .00000088  00000-0  63901-4 0  9992
2 26931  67.0513  65.7197 0006182 276.9145  83.1253 14.31744310240546
SO-50
1 27607U 02058C   25184.24369442  .00001128  00000-0  15740-3 0  9993
2 27607  64.5524 127.4873 0058991 328.8488  30.9125 14.81681474212734
CO-55
1 27844U 03031E   25184.56965781  .00000250  00000-0  12764-3 0  9999
2 27844  98.6754 192.5332 0010790 114.9211 245.3090 14.24011688142057
CO-57
1 27848U 03031J   25184.52928809  .00000211  00000-0  11229-3 0  9991
2 27848  98.6782 192.4809 0010457 130.6647 229.5442 14.23344165141779
RS-22
1 27939U 03042A   25184.87757693  .00000774  00000-0  13048-3 0  9998
2 27939  98.3299 354.9184 0010228 295.8574 200.4917 14.72399286164408
CO-58
1 28895U 05043F   25184.39302857  .00001179  00000-0  20011-3 0  9996
2 28895  98.2527 329.0451 0013576 227.8997 132.1055 14.71075510 50448
CO-65
1 32785U 08021C   25184.88049088  .00004261  00000-0  30760-3 0  9993
2 32785  97.7845 156.2274 0010922 125.7435 234.4808 15.04607707932803
CO-66
1 32791U 08021J   25184.48521480  .00010196  00000-0  48791-3 0  9994
2 32791  97.7283 165.0677 0005772  89.7875 270.4020 15.19160831934126
RS-30
1 32953U 08025A   25184.78712693  .00000017  00000-0  54527-4 0  9995
2 32953  82.5010 212.1241 0019037 357.0480   3.0484 12.43165853776546
NOAA-19
1 33591U 09005A   25184.83929080  .00000145  00000-0  10116-3 0  9996
2 33591  98.9963 249.6790 0012717 297.0896  62.8978 14.13384750845534
SRMSAT
1 37841U 11058D   25184.63033655  .00000373  00000-0  58942-4 0  9994
2 37841  19.9737   9.0093 0011770 329.7499  75.7910 14.11442002708510
ZACUBE-1
1 39417U 13066B   25184.85366693  .00003144  00000-0  27446-3 0  9994
2 39417  97.7807 141.7423 0043354 333.1944  26.7037 14.96848323628540
Delfi-N3xt
1 39428U 13066N   25184.29043315  .00003937  00000-0  40233-3 0  9996
2 39428  97.8332 101.6796 0082698 282.8759  76.3229 14.88645204622601
GOMX-1
1 39430U 13066Q   25184.82516304  .00001553  00000-0  24599-3 0  9990
2 39430  97.6816  41.9992 0133680 114.5495 246.9712 14.67716444618967
LO-74
1 39440U 13066AA  25184.58506238  .00003210  00000-0  32593-3 0  9994
2 39440  97.8497 128.9813 0063496 100.5621 260.2758 14.90058475625018
AO-73
1 39444U 13066AE  25184.32248370  .00005350  00000-0  39938-3 0  9997
2 39444  97.7799 146.3310 0041154 307.4536  52.2947 15.02591877627150
DTUSAT-2
1 40030U 14033W   25184.43777384  .00004631  00000-0  30104-3 0  9996
2 40030  98.0558 157.4155 0008569 351.6504   8.4579 15.08515378599991
EO-80
1 40032U 14033Y   25184.39041436  .00005027  00000-0  32580-3 0  9995
2 40032  98.0445 156.9877 0006744 283.0484  76.9990 15.08597533599968
LILACSAT-2
1 40908U 15049K   25184.85935929  .00010009  00000-0  25770-3 0  9994
2 40908  97.5051 205.7976 0010904  78.1322 282.1145 15.39375982541963
IO-86
1 40931U 15052B   25151.18580175  .00001241  00000-0  78118-4 0  9996
2 40931   6.0006  24.0987 0012733 338.8432  21.1169 14.78805930523047
Horyu-4
1 41340U 16012D   25184.56460669  .00018579  00000-0  48164-3 0  9990
2 41340  30.9979 330.5348 0006380 316.4211  43.5930 15.37742484516485
Lapan A3
1 41603U 16040E   25184.83118253  .00002484  00000-0  87922-4 0  9996
2 41603  97.1370 188.4888 0011107 173.1139 187.0256 15.29994966501491
CAS-2T
1 41847U 16066G   25184.80458378  .00001428  00000-0  20958-3 0  9998
2 41847  98.4195 259.0546 0347082 105.2102 258.7740 14.43556331454515
CAS-4B
1 42759U 17034B   25184.85022979  .00064998  00000-0  60670-3 0  9992
2 42759  43.0046 176.9057 0019048 100.2884 260.0131 15.66196057446403
CAS-4A
1 42761U 17034D   25184.86227879  .00066349  00000-0  58262-3 0  9998
2 42761  43.0082 173.7051 0020132 105.5494 254.7597 15.67662132446438
TechnoSat
1 42829U 17042E   25184.83067977  .00002300  00000-0  18031-3 0  9997
2 42829  97.3852 352.3786 0016218 191.7584 168.3265 15.01803630434366
AO-91
1 43017U 17073E   25184.59711786  .00008395  00000-0  42507-3 0  9993
2 43017  97.5215  54.7604 0173029  84.8789 277.2160 15.05051687412828
S-Net D
1 43186U 18014G   25184.58937635  .00003612  00000-0  21392-3 0  9994
2 43186  97.5604  87.2515 0010274 134.6674 225.5395 15.12007544406008
S-Net B
1 43187U 18014H   25184.59509269  .00003804  00000-0  22514-3 0  9994
2 43187  97.5610  87.2300 0011064 131.0840 229.1347 15.11987295406008
S-Net A
1 43188U 18014J   25184.58968396  .00003636  00000-0  21521-3 0  9994
2 43188  97.5618  87.3779 0010932 131.5763 228.6406 15.12012349406000
S-Net C
1 43189U 18014K   25184.59755927  .00003912  00000-0  23139-3 0  9994
2 43189  97.5634  87.4041 0012563 125.9181 234.3217 15.11982837404554
Ten-Koh
1 43677U 18084G   25184.46736433  .00001606  00000-0  13207-3 0  9993
2 43677  98.0852 357.6685 0007582 171.1599 188.9758 15.00660204363828
PO-101
1 43678U 18084H   25184.82979591  .00001832  00000-0  15879-3 0  9996
2 43678  98.1035   1.8799 0008328 196.1238 163.9719 14.98410645364013
QO-100
1 43700U 18090A   25184.57113749  .00000155  00000-0  00000-0 0  9990
2 43700   0.0149  50.0891 0002333  85.7550  17.3715  1.00272279 24183
MinXSS-2
1 43758U 18099A   25184.13259325  .00014363  00000-0  55428-3 0  9998
2 43758  97.5008 250.2520 0012948  77.5031 282.7655 15.26320731360566
AO-95
1 43770U 18099N   25184.85003121  .00007724  00000-0  38704-3 0  9993
2 43770  97.4900 242.6707 0012090 124.9513 235.2857 15.17580314360238
RANGE-A
1 43773U 18099R   25184.60232451  .00003960  00000-0  25207-3 0  9991
2 43773  97.4470 232.3079 0012978 108.0136 252.2509 15.09267412359840
MOVE-II
1 43780U 18099Y   25184.71810017  .00674680  19354-3  17555-2 0  9995
2 43780  97.4633 262.5143 0008623 242.3015 117.7386 15.94955146361625
SNUSat 2
1 43782U 18099AA  25184.38771553  .00005271  00000-0  28602-3 0  9996
2 43782  97.4582 238.7701 0013481  75.2190 285.0534 15.14896092360102
SnugLite
1 43784U 18099AC  25184.61121639  .00007346  00000-0  36526-3 0  9997
2 43784  97.4399 238.5987 0005063  82.2293 277.9515 15.17918791360285
ITASat 1
1 43786U 18099AE  25184.61836191  .00005289  00000-0  30091-3 0  9990
2 43786  97.4554 238.4350 0015836 121.0152 239.2637 15.13174365360090
EAGLET 1
1 43790U 18099AJ  25184.61911512  .00003601  00000-0  22990-3 0  9991
2 43790  97.4752 238.3125 0013674 106.0752 254.1984 15.09218710359694
ESEO
1 43792U 18099AL  25184.57417795  .00000677  00000-0  54983-4 0  9990
2 43792  97.4459 231.2133 0014917  81.5175 278.7741 15.02686471359428
CSIM
1 43793U 18099AM  25183.47212575  .00111399  00000-0  58446-3 0  9999
2 43793  97.4768 263.2271 0004323 131.1159 229.0482 15.80443332361252
JO-97
1 43803U 18099AX  25184.59617647  .00009142  00000-0  41155-3 0  9995
2 43803  97.4648 243.4628 0008703  68.8691 291.3474 15.21271090360426
Suomi 100
1 43804U 18099AY  25184.58389718  .00008165  00000-0  39516-3 0  9992
2 43804  97.4713 242.6778 0013581  69.0956 291.1730 15.18756824360347
ISAT
1 43879U 18111D   25184.68887327  .00015796  00000-0  53465-3 0  9996
2 43879  97.5937  99.6252 0010749 109.4769 250.7634 15.30633011355365
UWE-4
1 43880U 18111E   25184.27486037  .00010841  00000-0  41771-3 0  9999
2 43880  97.5882  97.5124 0013624 122.5378 237.7178 15.26439276357247
Sparrow
1 43881U 18111F   25184.52039863  .00017360  00000-0  56484-3 0  9999
2 43881  97.6085 102.4247 0008209 140.3869 219.7973 15.31910713357454
Prox-1
1 44339U 19036A   25184.61783275  .00007755  00000-0  96017-3 0  9991
2 44339  23.9972 263.8517 0007262 353.2911   6.7488 14.80343865321584
SONATE
1 44400U 19038Q   25184.61918990  .03410156  26696-5  67173-3 0  9997
2 44400  97.6654 215.4450 0011035 233.0639 126.9645 16.31474910333433
Taurus 1
1 44530U 19059C   25184.82023787  .00004450  00000-0  81998-3 0  9998
2 44530  98.6092 325.3704 0008051 324.8985  35.1685 14.66066959307492
Duchifat 3
1 44854U 19089C   25184.75503776  .00035243  00000-0  64775-3 0  9991
2 44854  36.9411 201.2718 0004552 177.1581 182.9203 15.48288915306698
TO-108
1 44881U 19093C   25184.80709178  .00000677  00000-0  84143-4 0  9991
2 44881  97.7919 259.9504 0014598 147.2493 212.9630 14.85640455299678
